This is the latest recevied weather packets stored in our database for station/object HASTNG-WX. If no packets are shown the sender has not sent any weather packets the latest 10 day(s).
| Time | Temp. | Humidity | Pressure | Rain* | Wind** | Luminosity | Snow |
|---|---|---|---|---|---|---|---|
| 1777864531 | 8.89° C | 72% | 978.3 hPa | 0 mm | - | - | - |
| 1777863661 | 8.89° C | 72% | 978.3 hPa | 0 mm | - | - | - |
| 1777862729 | 8.89° C | 65% | 978.1 hPa | 0 mm | - | - | - |
| 1777861845 | 8.89° C | 70% | 978.3 hPa | 0 mm | - | - | - |
| 1777860929 | 9.44° C | 70% | 978.3 hPa | 0 mm | - | - | - |
| 1777860060 | 9.44° C | 70% | 978.3 hPa | 0 mm | - | - | - |
| 1777859129 | 9.44° C | 66% | 978.9 hPa | 0 mm | - | - | - |
| 1777858248 | 10° C | 66% | 978.9 hPa | 0 mm | - | - | - |
| 1777857328 | 10° C | 66% | 978.9 hPa | 0 mm | - | - | - |
| 1777856459 | 10° C | 66% | 978.9 hPa | 0 mm | - | - | - |
| 1777855529 | 10° C | 62% | 979.5 hPa | 0 mm | - | - | - |
| 1777854648 | 10.56° C | 65% | 979.8 hPa | 0 mm | - | - | - |
| 1777853729 | 11.11° C | 65% | 979.8 hPa | 0 mm | - | - | - |
| 1777852862 | 11.67° C | 65% | 979.8 hPa | 0 mm | - | - | - |
| 1777851930 | 11.67° C | 60% | 980.6 hPa | 0 mm | - | - | - |
| 1777851048 | 12.22° C | 56% | 980 hPa | 0 mm | - | - | - |
| 1777850130 | 12.78° C | 56% | 980 hPa | 0 mm | - | - | - |
| 1777849254 | 12.78° C | 56% | 980 hPa | 0 mm | - | - | - |
| 1777848330 | 13.33° C | 54% | 980.4 hPa | 0 mm | - | - | - |
| 1777847449 | 13.33° C | 55% | 980.6 hPa | 0 mm | - | - | - |
| 1777846530 | 13.33° C | 55% | 980.6 hPa | 0 mm | - | - | - |
| 1777845665 | 13.33° C | 55% | 980.6 hPa | 0 mm | - | - | - |
| 1777844730 | 13.33° C | 51% | 981.2 hPa | 0 mm | - | - | - |
| 1777843847 | 13.89° C | 50% | 981 hPa | 0 mm | - | - | - |
| 1777842929 | 13.89° C | 50% | 981 hPa | 0 mm | - | - | - |
* Rain latest hour (hover to see other rain measurements)
** Current wind speed in m/s (hover to see current wind gust speed)